Location: Sevilla
(37.3933°N, 5.9839°W)
Time: 11:52:36
(UTC+02:00)

S-56A Canister/Altair - Pass Details

Date: 30 June 2024
Orbit: 638 x 2488 km, 38.9° (Epoch: 14 July)

Event Time Altitude Azimuth Distance (km) Brightness Sun altitude
Rises 05:45:00 0° 272° (W) 5,670 11.5 -13.7°
Enters shadow 05:48:13 - 261° (W) 5,319 11.3 -13.3°
Exits shadow 06:03:25 - 203° (SSW) 5,505 11.3 -11.0°
Sets 06:08:17 0° 188° (S) 6,105 11.7 -10.3°
